Wolf Creek Observed Data For Previous 48 Hours

Caption
Day and Hour Reservoir Elevation (behind dam)* Tailwater Elevation (below dam)* Average Hourly Discharge*
1/17/2018 1 AM CST 698.11 552.41 8,140
1/17/2018 2 AM CST 698.11 552.11 8,140
1/17/2018 3 AM CST 698.10 551.90 8,140
1/17/2018 4 AM CST 698.10 551.70 8,140
1/17/2018 5 AM CST 698.09 551.59 8,080
1/17/2018 6 AM CST 698.08 553.78 12,410
1/17/2018 7 AM CST 698.08 555.38 16,740
1/17/2018 8 AM CST 698.08 555.88 16,820
1/17/2018 9 AM CST 698.08 556.18 16,820
1/17/2018 10 AM CST 698.06 555.56 12,560
1/17/2018 11 AM CST 698.06 554.86 12,560
1/17/2018 12 PM CST 698.05 553.95 8,280
1/17/2018 1 PM CST 698.04 552.24 8,140
1/17/2018 2 PM CST 698.04 551.94 8,140
1/17/2018 3 PM CST 698.04 551.84 8,140
1/17/2018 4 PM CST 698.04 551.74 8,140
1/17/2018 5 PM CST 698.04 553.04 12,290
1/17/2018 6 PM CST 698.04 553.54 12,290
1/17/2018 7 PM CST 698.03 553.53 12,290
1/17/2018 8 PM CST 698.01 553.71 12,410
1/17/2018 9 PM CST 697.99 553.89 12,410
1/17/2018 10 PM CST 697.99 554.09 12,410
1/17/2018 11 PM CST 697.99 554.09 12,410
1/18/2018 12 AM CST 697.99 552.49 8,140
1/18/2018 1 AM CST 697.99 552.09 8,140
1/18/2018 2 AM CST 697.98 551.68 8,140
1/18/2018 3 AM CST 697.98 551.58 8,140
1/18/2018 4 AM CST 697.97 551.37 8,080
1/18/2018 5 AM CST 697.97 551.27 8,080
1/18/2018 6 AM CST 697.97 553.46 12,290
1/18/2018 7 AM CST 697.90 557.40 22,170
1/18/2018 8 AM CST 697.90 557.40 22,170
1/18/2018 9 AM CST 697.88 557.48 22,370
1/18/2018 10 AM CST 697.86 555.16 12,560
1/18/2018 11 AM CST 697.84 555.34 12,560
1/18/2018 12 PM CST 697.82 553.62 8,280
1/18/2018 1 PM CST 697.80 553.30 8,200
1/18/2018 2 PM CST 697.78 552.58 8,200
1/18/2018 3 PM CST 697.76 552.36 8,200
1/18/2018 4 PM CST 697.76 552.26 8,200
1/18/2018 5 PM CST 697.74 552.14 8,200
1/18/2018 6 PM CST 697.74 552.04 8,200

Elevations are in feet above sea level. Discharges are in cubic feet per second and are reported at the end of the hour.